| time (UTC) | temp C | wind direction | speed KPH | gust KPH | rain 1hr cm | rain 24hr cm | rain mn cm | humidity % | barometer mb |
| 20260505150604 | 15 | 227 | 1.6 | 6.4 | 0.15 | 2.44 | 2.44 | 98 | 1013.8 |
| 20260505140520 | 14 | 321 | 3.2 | 4.8 | 0.56 | 2.29 | 2.29 | 97 | 1015.0 |
| 20260505124539 | 15 | 343 | 4.8 | 11.3 | 0.28 | 1.45 | 1.45 | 93 | 1015.6 |
| 20260505123604 | 16 | 241 | 6.4 | 19.3 | 0.10 | 1.27 | 1.27 | 91 | 1015.3 |
| 20260505122551 | 16 | 34 | 1.6 | 9.7 | 0.10 | 1.24 | 1.24 | 91 | 1013.8 |
| 20260505121534 | 16 | 52 | 1.6 | 6.4 | 0.28 | 1.24 | 1.24 | 91 | 1013.6 |
| 20260505120520 | 16 | 198 | 1.6 | 3.2 | 0.28 | 1.24 | 1.24 | 92 | 1013.9 |
| 20260505115602 | 17 | 320 | 0.0 | 3.2 | 0.23 | 1.17 | 1.17 | 90 | 1013.8 |
| 20260505114605 | 17 | 85 | 1.6 | 6.4 | 0.23 | 1.17 | 1.17 | 91 | 1014.1 |
| 20260505113550 | 17 | 262 | 1.6 | 6.4 | 0.23 | 1.17 | 1.17 | 90 | 1014.0 |
| 20260505112518 | 18 | 262 | 1.6 | 4.8 | 0.23 | 1.17 | 1.17 | 86 | 1014.0 |
| 20260505111605 | 20 | 321 | 1.6 | 6.4 | 0.03 | 0.97 | 0.97 | 79 | 1014.2 |
| 20260505110552 | 21 | 211 | 1.6 | 6.4 | 0.03 | 0.97 | 0.97 | 72 | 1014.1 |
| 20260505101536 | 21 | 147 | 3.2 | 8.0 | 0.00 | 0.94 | 0.94 | 68 | 1015.8 |
| 20260505100521 | 21 | 349 | 3.2 | 8.0 | 0.00 | 0.94 | 0.94 | 71 | 1015.9 |
| 20260505095603 | 21 | 316 | 1.6 | 4.8 | 0.00 | 0.94 | 0.94 | 70 | 1016.0 |
| 20260505094545 | 21 | 336 | 3.2 | 8.0 | 0.00 | 0.94 | 0.94 | 69 | 1016.4 |
| 20260505093532 | 22 | 24 | 3.2 | 6.4 | 0.00 | 0.94 | 0.94 | 67 | 1016.5 |
| 20260505092614 | 21 | 329 | 1.6 | 8.0 | 0.00 | 0.94 | 0.94 | 70 | 1016.8 |
| 20260505091600 | 22 | 350 | 4.8 | 9.7 | 0.00 | 0.94 | 0.94 | 68 | 1016.8 |
| 20260505090607 | 22 | 15 | 3.2 | 9.7 | 0.00 | 0.94 | 0.94 | 69 | 1016.9 |
| 20260505085555 | 21 | 310 | 3.2 | 6.4 | 0.00 | 0.94 | 0.94 | 71 | 1017.2 |
| 20260505084636 | 21 | 331 | 1.6 | 8.0 | 0.00 | 0.94 | 0.94 | 71 | 1017.5 |
| 20260505083617 | 20 | 131 | 3.2 | 8.0 | 0.00 | 0.94 | 0.94 | 74 | 1017.7 |
| 20260505082544 | 20 | 301 | 3.2 | 6.4 | 0.00 | 0.94 | 0.94 | 76 | 1017.8 |
| 20260505081527 | 20 | 147 | 1.6 | 6.4 | 0.00 | 0.94 | 0.94 | 77 | 1017.9 |
| 20260505080615 | 20 | 354 | 1.6 | 4.8 | 0.00 | 0.94 | 0.94 | 80 | 1018.1 |
| 20260505075559 | 19 | 21 | 0.0 | 3.2 | 0.00 | 0.94 | 0.94 | 84 | 1018.4 |
| 20260505074600 | 18 | 327 | 1.6 | 3.2 | 0.00 | 0.94 | 0.94 | 86 | 1018.6 |
| 20260505073527 | 17 | 208 | 0.0 | 3.2 | 0.00 | 0.94 | 0.94 | 90 | 1018.8 |
| 20260505072609 | 18 | 254 | 1.6 | 4.8 | 0.00 | 0.94 | 0.94 | 88 | 1018.8 |
| 20260505071551 | 18 | 296 | 0.0 | 3.2 | 0.00 | 0.94 | 0.94 | 89 | 1018.9 |
| 20260505070537 | 17 | 0.0 | 3.2 | 0.00 | 0.94 | 0.94 | 90 | 1019.0 | |
| 20260505065524 | 16 | 0.0 | 1.6 | 0.00 | 0.94 | 0.94 | 92 | 1019.2 | |
| 20260505064612 | 17 | 293 | 0.0 | 3.2 | 0.00 | 0.94 | 0.94 | 91 | 1019.2 |
| 20260505063559 | 16 | 192 | 0.0 | 3.2 | 0.00 | 0.94 | 0.94 | 98 | 1019.2 |
| 20260505062604 | 15 | 242 | 1.6 | 3.2 | 0.00 | 0.94 | 0.94 | 98 | 1019.1 |
| 20260505061531 | 15 | 230 | 1.6 | 3.2 | 0.00 | 0.94 | 0.94 | 98 | 1019.1 |
| 20260505060519 | 15 | 244 | 1.6 | 3.2 | 0.00 | 0.94 | 0.94 | 98 | 1019.0 |
| 20260505055604 | 15 | 200 | 0.0 | 3.2 | 0.00 | 0.94 | 0.94 | 98 | 1019.0 |
| 20260505054551 | 14 | 232 | 1.6 | 4.8 | 0.00 | 0.94 | 0.94 | 98 | 1019.0 |
| 20260505053535 | 14 | 210 | 3.2 | 3.2 | 0.00 | 0.94 | 0.94 | 98 | 1019.0 |
| 20260505052623 | 14 | 244 | 0.0 | 3.2 | 0.00 | 0.94 | 0.94 | 98 | 1019.0 |
| 20260505051607 | 14 | 271 | 1.6 | 3.2 | 0.00 | 0.94 | 0.94 | 98 | 1019.1 |
| 20260505050611 | 14 | 194 | 1.6 | 6.4 | 0.00 | 0.94 | 0.94 | 98 | 1018.9 |
| 20260505041539 | 14 | 270 | 1.6 | 4.8 | 0.28 | 0.94 | 0.94 | 97 | 1019.2 |
| 20260505040524 | 14 | 236 | 1.6 | 4.8 | 0.28 | 0.94 | 0.94 | 97 | 1018.9 |
| 20260505035613 | 14 | 185 | 0.0 | 3.2 | 0.33 | 0.91 | 0.91 | 97 | 1018.9 |
| 20260505034554 | 14 | 294 | 1.6 | 4.8 | 0.33 | 0.86 | 0.86 | 97 | 1019.2 |
| 20260505033555 | 14 | 279 | 3.2 | 4.8 | 0.25 | 0.76 | 0.76 | 97 | 1019.5 |
| 20260505032521 | 14 | 237 | 1.6 | 3.2 | 0.18 | 0.66 | 0.66 | 97 | 1019.2 |
| 20260505031603 | 14 | 224 | 3.2 | 3.2 | 0.15 | 0.66 | 0.66 | 97 | 1019.2 |
| 20260505030545 | 14 | 245 | 0.0 | 3.2 | 0.20 | 0.66 | 0.66 | 97 | 1019.3 |
| 20260505025531 | 14 | 262 | 1.6 | 4.8 | 0.18 | 0.58 | 0.58 | 97 | 1019.7 |
| 20260505024519 | 14 | 326 | 0.0 | 3.2 | 0.13 | 0.53 | 0.53 | 97 | 1019.3 |
| 20260505023607 | 14 | 300 | 0.0 | 1.6 | 0.13 | 0.51 | 0.51 | 96 | 1018.8 |
| 20260505022553 | 14 | 282 | 1.6 | 3.2 | 0.15 | 0.51 | 0.51 | 96 | 1018.9 |
| 20260505021535 | 14 | 233 | 3.2 | 4.8 | 0.51 | 0.51 | 0.51 | 96 | 1019.4 |
| 20260505020541 | 14 | 296 | 1.6 | 6.4 | 0.43 | 0.43 | 0.43 | 96 | 1020.2 |
| 20260505015609 | 14 | 306 | 3.2 | 8.0 | 0.43 | 0.43 | 0.43 | 96 | 1020.5 |
| 20260505014556 | 14 | 303 | 3.2 | 9.7 | 0.41 | 0.41 | 0.41 | 96 | 1020.6 |
| 20260505013544 | 14 | 309 | 1.6 | 6.4 | 0.38 | 0.38 | 0.38 | 95 | 1020.9 |
| 20260505012525 | 15 | 9 | 3.2 | 9.7 | 0.36 | 0.36 | 0.36 | 93 | 1020.6 |
| 20260505011629 | 16 | 296 | 3.2 | 6.4 | 0.00 | 0.00 | 0.00 | 86 | 1020.4 |
| 20260505010554 | 15 | 231 | 1.6 | 3.2 | 0.00 | 0.00 | 0.00 | 87 | 1018.9 |
| 20260505005541 | 15 | 239 | 0.0 | 3.2 | 0.00 | 0.00 | 0.00 | 87 | 1019.0 |
| 20260505004528 | 15 | 213 | 1.6 | 1.6 | 0.00 | 0.00 | 0.00 | 87 | 1018.9 |
| 20260505003610 | 15 | 212 | 1.6 | 3.2 | 0.00 | 0.00 | 0.00 | 89 | 1019.2 |
| 20260505002557 | 15 | 225 | 1.6 | 3.2 | 0.00 | 0.00 | 0.00 | 90 | 1019.2 |
| 20260505001605 | 15 | 224 | 1.6 | 3.2 | 0.00 | 0.00 | 0.00 | 90 | 1019.3 |
| 20260505000531 | 15 | 231 | 3.2 | 3.2 | 0.00 | 0.00 | 0.00 | 91 | 1019.4 |
| 20260504235519 | 15 | 223 | 1.6 | 3.2 | 0.00 | 0.00 | 0.00 | 91 | 1019.5 |
| 20260504234607 | 15 | 231 | 1.6 | 3.2 | 0.00 | 0.00 | 0.00 | 90 | 1019.4 |
| 20260504233553 | 15 | 0.0 | 3.2 | 0.00 | 0.00 | 0.00 | 90 | 1019.5 | |
| 20260504232535 | 15 | 238 | 1.6 | 3.2 | 0.00 | 0.00 | 0.00 | 90 | 1019.5 |
| 20260504231521 | 15 | 208 | 1.6 | 3.2 | 0.00 | 0.00 | 0.00 | 90 | 1019.4 |
| 20260504230609 | 15 | 222 | 1.6 | 4.8 | 0.00 | 0.00 | 0.00 | 89 | 1019.5 |
| 20260504225556 | 15 | 210 | 1.6 | 3.2 | 0.00 | 0.00 | 0.00 | 89 | 1019.7 |
| 20260504224543 | 15 | 226 | 1.6 | 4.8 | 0.00 | 0.00 | 0.00 | 90 | 1019.8 |
| 20260504223527 | 15 | 227 | 1.6 | 3.2 | 0.00 | 0.00 | 0.00 | 90 | 1019.8 |
| 20260504222615 | 15 | 228 | 1.6 | 3.2 | 0.00 | 0.00 | 0.00 | 90 | 1020.0 |
| 20260504221558 | 15 | 219 | 1.6 | 3.2 | 0.00 | 0.00 | 0.00 | 90 | 1020.2 |
| 20260504220545 | 15 | 225 | 1.6 | 3.2 | 0.00 | 0.00 | 0.00 | 89 | 1020.3 |
| 20260504215532 | 15 | 216 | 1.6 | 3.2 | 0.00 | 0.00 | 0.00 | 89 | 1020.2 |
| 20260504214620 | 15 | 201 | 1.6 | 3.2 | 0.00 | 0.00 | 0.00 | 89 | 1020.3 |
| 20260504213605 | 15 | 226 | 1.6 | 3.2 | 0.00 | 0.00 | 0.00 | 88 | 1020.5 |
| 20260504212552 | 15 | 222 | 1.6 | 3.2 | 0.00 | 0.00 | 0.00 | 88 | 1020.7 |
| 20260504211555 | 15 | 220 | 1.6 | 4.8 | 0.00 | 0.00 | 0.00 | 88 | 1020.9 |
| 20260504210522 | 15 | 223 | 1.6 | 3.2 | 0.00 | 0.00 | 0.00 | 88 | 1020.9 |
| 20260504205608 | 16 | 0.0 | 3.2 | 0.00 | 0.00 | 0.00 | 87 | 1021.0 | |
| 20260504204556 | 16 | 234 | 1.6 | 3.2 | 0.00 | 0.00 | 0.00 | 86 | 1021.0 |
| 20260504203543 | 16 | 227 | 1.6 | 3.2 | 0.00 | 0.00 | 0.00 | 86 | 1021.1 |
| 20260504202529 | 16 | 215 | 1.6 | 3.2 | 0.00 | 0.00 | 0.00 | 85 | 1021.2 |
| 20260504201618 | 16 | 207 | 0.0 | 3.2 | 0.00 | 0.00 | 0.00 | 86 | 1021.4 |
| 20260504200604 | 16 | 233 | 1.6 | 3.2 | 0.00 | 0.00 | 0.00 | 86 | 1021.4 |
| 20260504195612 | 16 | 224 | 0.0 | 3.2 | 0.00 | 0.00 | 0.00 | 86 | 1021.5 |
| 20260504194559 | 16 | 234 | 1.6 | 3.2 | 0.00 | 0.00 | 0.00 | 85 | 1021.7 |
| 20260504193526 | 16 | 234 | 1.6 | 3.2 | 0.00 | 0.00 | 0.00 | 84 | 1021.5 |
| 20260504192608 | 16 | 234 | 0.0 | 1.6 | 0.00 | 0.00 | 0.00 | 83 | 1021.5 |
| 20260504191553 | 17 | 202 | 0.0 | 3.2 | 0.00 | 0.00 | 0.00 | 82 | 1021.2 |
| 20260504190543 | 17 | 201 | 0.0 | 3.2 | 0.00 | 0.00 | 0.00 | 82 | 1021.2 |
| 20260504185525 | 17 | 208 | 1.6 | 3.2 | 0.00 | 0.00 | 0.00 | 81 | 1021.3 |
| 20260504184605 | 17 | 0.0 | 3.2 | 0.00 | 0.00 | 0.00 | 80 | 1021.4 | |
| 20260504183551 | 17 | 222 | 1.6 | 3.2 | 0.00 | 0.00 | 0.00 | 79 | 1021.4 |
| 20260504182555 | 17 | 206 | 0.0 | 3.2 | 0.00 | 0.00 | 0.00 | 78 | 1021.4 |
| 20260504181619 | 17 | 231 | 0.0 | 1.6 | 0.00 | 0.00 | 0.00 | 77 | 1021.5 |
| 20260504180606 | 17 | 208 | 0.0 | 3.2 | 0.00 | 0.00 | 0.00 | 76 | 1021.4 |
| 20260504175547 | 17 | 0.0 | 3.2 | 0.00 | 0.00 | 0.00 | 76 | 1021.3 | |
| 20260504174532 | 17 | 237 | 0.0 | 3.2 | 0.00 | 0.00 | 0.00 | 76 | 1021.2 |
| 20260504173615 | 17 | 236 | 0.0 | 1.6 | 0.00 | 0.00 | 0.00 | 76 | 1021.3 |
| 20260504172557 | 17 | 196 | 0.0 | 3.2 | 0.00 | 0.00 | 0.00 | 75 | 1021.1 |
| 20260504171536 | 17 | 0.0 | 1.6 | 0.00 | 0.00 | 0.00 | 75 | 1021.1 | |
| 20260504170619 | 18 | 0.0 | 1.6 | 0.00 | 0.00 | 0.00 | 74 | 1021.2 |